Time,TemperatureF,DewpointF,PressureIn,WindDirection,WindDirectionDegrees,WindSpeedMPH,WindSpeedGustMPH,Humidity,HourlyPrecipIn,Conditions,Clouds,dailyrainin,SolarRadiationWatts/m^2,SoftwareType,DateUTC
2013-08-21 00:02:00,59.0,35.0,-100.00,ESE,108,6.0,8.0,40,0.00,,,0.00,0.000000,,2013-08-21 06:02:00,
2013-08-21 00:12:00,59.0,35.0,-100.00,ESE,108,6.0,8.0,40,0.00,,,0.00,0.000000,,2013-08-21 06:12:00,
2013-08-21 01:11:00,55.0,33.0,-100.00,ENE,65,3.0,7.0,44,0.00,,,0.00,0.000000,,2013-08-21 07:11:00,
2013-08-21 01:42:00,52.0,33.0,-100.00,SSE,156,2.0,7.0,49,0.00,,,0.00,0.000000,,2013-08-21 07:42:00,
2013-08-21 01:53:00,52.0,33.0,-100.00,SSE,156,2.0,7.0,49,0.00,,,0.00,0.000000,,2013-08-21 07:53:00,
2013-08-21 02:03:00,52.0,33.0,-100.00,SSE,156,2.0,7.0,49,0.00,,,0.00,0.000000,,2013-08-21 08:03:00,
2013-08-21 02:12:00,52.0,33.0,-100.00,SSE,156,2.0,7.0,49,0.00,,,0.00,0.000000,,2013-08-21 08:12:00,
2013-08-21 03:43:00,47.0,34.0,-100.00,NNE,15,1.0,6.0,61,0.00,,,0.00,0.000000,,2013-08-21 09:43:00,
2013-08-21 03:53:00,47.0,34.0,-100.00,NNE,15,1.0,6.0,61,0.00,,,0.00,0.000000,,2013-08-21 09:53:00,
2013-08-21 04:03:00,47.0,34.0,-100.00,NNE,15,1.0,6.0,61,0.00,,,0.00,0.000000,,2013-08-21 10:03:00,
2013-08-21 04:12:00,47.0,34.0,-100.00,NNE,15,1.0,6.0,61,0.00,,,0.00,0.000000,,2013-08-21 10:12:00,
2013-08-21 04:43:00,46.0,33.0,-100.00,North,358,1.0,6.0,60,0.00,,,0.00,0.000000,,2013-08-21 10:43:00,
2013-08-21 04:52:00,46.0,33.0,-100.00,North,358,1.0,6.0,60,0.00,,,0.00,0.000000,,2013-08-21 10:52:00,
2013-08-21 05:03:00,46.0,33.0,-100.00,North,358,1.0,6.0,60,0.00,,,0.00,0.000000,,2013-08-21 11:03:00,
2013-08-21 05:11:00,46.0,33.0,-100.00,North,358,1.0,6.0,60,0.00,,,0.00,0.000000,,2013-08-21 11:11:00,
2013-08-21 05:42:00,45.0,34.0,-100.00,ENE,76,3.0,5.0,65,0.00,,,0.00,0.000000,,2013-08-21 11:42:00,
2013-08-21 05:52:00,45.0,34.0,-100.00,ENE,76,3.0,5.0,65,0.00,,,0.00,0.000000,,2013-08-21 11:52:00,
2013-08-21 06:01:00,45.0,34.0,-100.00,ENE,76,3.0,5.0,65,0.00,,,0.00,0.000000,,2013-08-21 12:01:00,
2013-08-21 06:12:00,45.0,34.0,-100.00,ENE,76,3.0,5.0,65,0.00,,,0.00,0.000000,,2013-08-21 12:12:00,
2013-08-21 06:42:00,41.0,33.0,-100.00,North,9,1.0,4.0,74,0.00,,,-99.99,0.000000,,2013-08-21 12:42:00,
2013-08-21 06:52:00,41.0,33.0,-100.00,North,9,1.0,4.0,74,0.00,,,-99.99,0.000000,,2013-08-21 12:52:00,
2013-08-21 07:02:00,41.0,33.0,-100.00,North,9,1.0,4.0,74,0.00,,,-99.99,0.000000,,2013-08-21 13:02:00,
2013-08-21 07:11:00,41.0,33.0,-100.00,North,9,1.0,4.0,74,0.00,,,-99.99,0.000000,,2013-08-21 13:11:00,
2013-08-21 07:42:00,41.0,33.0,-100.00,NW,320,1.0,5.0,73,0.00,,,0.00,7.000000,,2013-08-21 13:42:00,
2013-08-21 07:52:00,41.0,33.0,-100.00,NW,320,1.0,5.0,73,0.00,,,0.00,7.000000,,2013-08-21 13:52:00,
2013-08-21 08:02:00,41.0,33.0,-100.00,NW,320,1.0,5.0,73,0.00,,,0.00,7.000000,,2013-08-21 14:02:00,
2013-08-21 08:11:00,41.0,33.0,-100.00,NW,320,1.0,5.0,73,0.00,,,0.00,7.000000,,2013-08-21 14:11:00,
2013-08-21 08:42:00,46.0,38.0,-100.00,North,0,0.0,2.0,73,0.00,,,0.00,90.000000,,2013-08-21 14:42:00,
2013-08-21 08:52:00,46.0,38.0,-100.00,North,0,0.0,2.0,73,0.00,,,0.00,90.000000,,2013-08-21 14:52:00,
2013-08-21 09:01:00,46.0,38.0,-100.00,North,0,0.0,2.0,73,0.00,,,0.00,90.000000,,2013-08-21 15:01:00,
2013-08-21 09:11:00,46.0,38.0,-100.00,North,0,0.0,2.0,73,0.00,,,0.00,90.000000,,2013-08-21 15:11:00,
2013-08-21 09:43:00,52.0,41.0,-100.00,NW,311,1.0,3.0,65,0.00,,,0.00,337.000000,,2013-08-21 15:43:00,
2013-08-21 09:54:00,52.0,41.0,-100.00,NW,311,1.0,3.0,65,0.00,,,0.00,337.000000,,2013-08-21 15:54:00,
2013-08-21 10:04:00,52.0,41.0,-100.00,NW,311,1.0,3.0,65,0.00,,,0.00,337.000000,,2013-08-21 16:04:00,
2013-08-21 10:13:00,52.0,41.0,-100.00,NW,311,1.0,3.0,65,0.00,,,0.00,337.000000,,2013-08-21 16:13:00,
2013-08-21 10:43:00,61.0,40.0,-100.00,West,272,3.0,5.0,45,0.00,,,0.00,555.000000,,2013-08-21 16:43:00,
2013-08-21 10:53:00,61.0,40.0,-100.00,West,272,3.0,5.0,45,0.00,,,0.00,555.000000,,2013-08-21 16:53:00,
2013-08-21 11:03:00,61.0,40.0,-100.00,West,272,3.0,5.0,45,0.00,,,0.00,555.000000,,2013-08-21 17:03:00,
2013-08-21 11:12:00,61.0,40.0,-100.00,West,272,3.0,5.0,45,0.00,,,0.00,555.000000,,2013-08-21 17:12:00,
2013-08-21 11:43:00,68.0,39.0,-100.00,West,281,3.0,5.0,34,0.00,,,0.00,739.000000,,2013-08-21 17:43:00,
2013-08-21 11:53:00,68.0,39.0,-100.00,West,281,3.0,5.0,34,0.00,,,0.00,739.000000,,2013-08-21 17:53:00,
2013-08-21 12:02:00,68.0,39.0,-100.00,West,281,3.0,5.0,34,0.00,,,0.00,739.000000,,2013-08-21 18:02:00,
2013-08-21 12:12:00,68.0,39.0,-100.00,West,281,3.0,5.0,34,0.00,,,0.00,739.000000,,2013-08-21 18:12:00,
2013-08-21 12:42:00,74.0,40.0,-100.00,WNW,294,4.0,7.0,29,0.00,,,0.00,883.000000,,2013-08-21 18:42:00,
2013-08-21 12:52:00,74.0,40.0,-100.00,WNW,294,4.0,7.0,29,0.00,,,0.00,883.000000,,2013-08-21 18:52:00,
2013-08-21 13:01:00,74.0,40.0,-100.00,WNW,294,4.0,7.0,29,0.00,,,0.00,883.000000,,2013-08-21 19:01:00,
2013-08-21 13:11:00,74.0,40.0,-100.00,WNW,294,4.0,7.0,29,0.00,,,0.00,883.000000,,2013-08-21 19:11:00,
2013-08-21 13:42:00,79.0,29.0,-100.00,WNW,287,4.0,9.0,16,0.00,,,0.00,975.000000,,2013-08-21 19:42:00,
2013-08-21 13:52:00,79.0,29.0,-100.00,WNW,287,4.0,9.0,16,0.00,,,0.00,975.000000,,2013-08-21 19:52:00,
2013-08-21 14:02:00,79.0,29.0,-100.00,WNW,287,4.0,9.0,16,0.00,,,0.00,975.000000,,2013-08-21 20:02:00,
2013-08-21 14:11:00,79.0,29.0,-100.00,WNW,287,4.0,9.0,16,0.00,,,0.00,975.000000,,2013-08-21 20:11:00,
2013-08-21 14:42:00,83.0,32.0,-100.00,West,277,5.0,11.0,16,0.00,,,0.00,993.000000,,2013-08-21 20:42:00,
2013-08-21 14:52:00,83.0,32.0,-100.00,West,277,5.0,11.0,16,0.00,,,0.00,993.000000,,2013-08-21 20:52:00,
2013-08-21 15:02:00,83.0,32.0,-100.00,West,277,5.0,11.0,16,0.00,,,0.00,993.000000,,2013-08-21 21:02:00,
2013-08-21 15:12:00,83.0,32.0,-100.00,West,277,5.0,11.0,16,0.00,,,0.00,993.000000,,2013-08-21 21:12:00,
2013-08-21 15:44:00,84.0,31.0,-100.00,North,11,5.0,10.0,15,0.00,,,0.00,941.000000,,2013-08-21 21:44:00,
2013-08-21 15:54:00,84.0,31.0,-100.00,North,11,5.0,10.0,15,0.00,,,0.00,941.000000,,2013-08-21 21:54:00,
2013-08-21 16:04:00,84.0,31.0,-100.00,North,11,5.0,10.0,15,0.00,,,0.00,941.000000,,2013-08-21 22:04:00,
2013-08-21 16:14:00,84.0,31.0,-100.00,North,11,5.0,10.0,15,0.00,,,0.00,941.000000,,2013-08-21 22:14:00,
2013-08-21 16:44:00,87.0,32.0,-100.00,NNW,345,7.0,11.0,14,0.00,,,0.00,612.000000,,2013-08-21 22:44:00,
2013-08-21 16:53:00,87.0,32.0,-100.00,NNW,345,7.0,11.0,14,0.00,,,0.00,612.000000,,2013-08-21 22:53:00,
2013-08-21 17:03:00,87.0,32.0,-100.00,NNW,345,7.0,11.0,14,0.00,,,0.00,612.000000,,2013-08-21 23:03:00,
2013-08-21 17:12:00,87.0,32.0,-100.00,NNW,345,7.0,11.0,14,0.00,,,0.00,612.000000,,2013-08-21 23:12:00,
2013-08-21 17:43:00,86.0,31.0,-100.00,NW,326,6.0,15.0,14,0.00,,,0.00,712.000000,,2013-08-21 23:43:00,
2013-08-21 17:53:00,86.0,31.0,-100.00,NW,326,6.0,15.0,14,0.00,,,0.00,712.000000,,2013-08-21 23:53:00,
2013-08-21 18:02:00,86.0,31.0,-100.00,NW,326,6.0,15.0,14,0.00,,,0.00,712.000000,,2013-08-22 00:02:00,
2013-08-21 18:12:00,86.0,31.0,-100.00,NW,326,6.0,15.0,14,0.00,,,0.00,712.000000,,2013-08-22 00:12:00,
2013-08-21 18:42:00,85.0,30.0,-100.00,NNW,327,6.0,11.0,14,0.00,,,0.00,477.000000,,2013-08-22 00:42:00,
2013-08-21 18:52:00,85.0,30.0,-100.00,NNW,327,6.0,11.0,14,0.00,,,0.00,477.000000,,2013-08-22 00:52:00,
2013-08-21 19:02:00,85.0,30.0,-100.00,NNW,327,6.0,11.0,14,0.00,,,0.00,477.000000,,2013-08-22 01:02:00,
2013-08-21 19:11:00,85.0,30.0,-100.00,NNW,327,6.0,11.0,14,0.00,,,0.00,477.000000,,2013-08-22 01:11:00,
2013-08-21 19:42:00,81.0,35.0,-100.00,North,356,5.0,10.0,19,0.00,,,0.00,152.000000,,2013-08-22 01:42:00,
2013-08-21 19:52:00,81.0,35.0,-100.00,North,356,5.0,10.0,19,0.00,,,0.00,152.000000,,2013-08-22 01:52:00,
2013-08-21 20:03:00,81.0,35.0,-100.00,North,356,5.0,10.0,19,0.00,,,0.00,152.000000,,2013-08-22 02:03:00,
2013-08-21 20:12:00,81.0,35.0,-100.00,North,356,5.0,10.0,19,0.00,,,0.00,152.000000,,2013-08-22 02:12:00,
2013-08-21 20:52:00,77.0,29.0,-100.00,North,6,2.0,11.0,17,0.00,,,0.00,62.000000,,2013-08-22 02:52:00,
2013-08-21 21:02:00,77.0,29.0,-100.00,North,6,2.0,11.0,17,0.00,,,0.00,62.000000,,2013-08-22 03:02:00,
2013-08-21 21:12:00,77.0,29.0,-100.00,North,6,2.0,11.0,17,0.00,,,0.00,62.000000,,2013-08-22 03:12:00,
2013-08-21 21:45:00,67.0,31.0,-100.00,ESE,105,5.0,7.0,26,0.00,,,0.00,3.000000,,2013-08-22 03:45:00,
2013-08-21 21:54:00,67.0,31.0,-100.00,ESE,105,5.0,7.0,26,0.00,,,0.00,3.000000,,2013-08-22 03:54:00,
2013-08-21 22:04:00,67.0,31.0,-100.00,ESE,105,5.0,7.0,26,0.00,,,0.00,3.000000,,2013-08-22 04:04:00,
2013-08-21 22:14:00,67.0,31.0,-100.00,ESE,105,5.0,7.0,26,0.00,,,0.00,3.000000,,2013-08-22 04:14:00,
2013-08-21 22:54:00,63.0,29.0,-100.00,East,93,5.0,9.0,28,0.00,,,-99.99,0.000000,,2013-08-22 04:54:00,
2013-08-21 23:03:00,63.0,29.0,-100.00,East,93,5.0,9.0,28,0.00,,,-99.99,0.000000,,2013-08-22 05:03:00,
2013-08-21 23:12:00,63.0,29.0,-100.00,East,93,5.0,9.0,28,0.00,,,-99.99,0.000000,,2013-08-22 05:12:00,
2013-08-21 23:43:00,60.0,31.0,-100.00,East,90,3.0,8.0,33,0.00,,,0.00,0.000000,,2013-08-22 05:43:00,
2013-08-21 23:52:00,60.0,31.0,-100.00,East,90,3.0,8.0,33,0.00,,,0.00,0.000000,,2013-08-22 05:52:00,